Theta_e
356 356 356 355 355 355 355 354 354 354 354 354 355 354 354 355 355 355 355 354 354 356 357 356 355 356 356 356 356 356 357 358 358 358 359 360 359 360 360 359 358 357 357 357 357 355 353 352 348 344 343 343 343 343 343 344 345 345 344 341 339 340 340 339 341 341 341 342 342 342 341 340 339 336 336 337 337 337 337 336 337 338 338 337 337
357 357 357 356 356 355 355 355 354 354 355 354 355 355 355 356 356 357 357 355 356 356 356 356 356 357 357 358 357 357 357 357 358 359 359 359 359 360 360 359 358 358 357 358 357 356 355 353 350 346 343 341 341 343 344 343 345 346 344 341 340 341 340 340 341 341 341 341 342 343 342 341 340 339 337 337 337 337 336 336 338 337 337 338 339
357 357 357 357 357 356 355 356 355 355 355 355 355 355 354 355 356 357 358 357 356 356 356 356 356 358 358 358 358 358 358 357 358 359 358 359 359 359 359 359 358 358 358 357 358 357 355 354 352 349 346 343 340 341 343 344 344 345 344 342 341 341 341 341 341 342 342 341 341 342 343 342 341 339 339 337 337 337 336 337 337 337 338 339 339
358 358 357 357 357 357 356 356 355 356 356 355 355 355 355 354 354 356 357 358 358 356 356 356 357 357 358 358 358 358 358 358 358 358 358 358 358 358 359 359 358 358 357 357 357 357 356 355 353 351 349 348 344 341 341 343 343 344 344 345 343 341 341 343 342 343 342 341 341 341 342 343 342 339 339 338 337 336 337 337 338 338 338 339 340
359 358 358 357 357 357 357 356 356 356 356 355 356 355 355 355 354 354 356 356 358 357 358 358 358 358 358 357 358 358 358 358 359 359 359 358 358 357 357 358 358 358 357 357 356 356 356 355 353 353 350 350 348 345 342 341 342 342 343 344 345 344 343 343 343 343 343 342 342 340 341 342 342 341 339 338 338 337 337 338 338 339 339 340 340
359 359 358 358 358 357 357 356 356 356 355 355 356 356 355 355 355 354 354 355 356 358 359 359 359 359 359 359 359 359 358 358 359 359 359 359 359 358 358 358 358 358 358 357 356 355 355 353 353 353 352 351 350 348 345 342 342 342 342 342 344 345 345 344 344 343 343 343 343 342 341 340 342 342 341 339 338 338 338 339 340 340 340 340 340
360 359 359 359 358 358 357 357 356 356 356 355 355 356 355 356 355 355 354 354 355 356 358 360 359 359 360 360 360 360 358 358 359 359 359 359 359 359 359 359 358 358 358 358 357 356 355 354 353 353 352 352 351 350 348 346 344 343 342 341 342 344 345 345 344 344 344 343 343 342 342 341 341 342 341 341 341 340 341 340 341 341 340 341 340
361 361 360 359 359 359 358 358 357 356 356 356 355 355 355 355 356 355 355 354 354 355 356 358 359 359 359 359 360 360 359 359 359 359 359 359 359 360 360 359 359 359 359 358 358 358 357 355 355 353 353 352 351 350 350 348 347 345 344 344 344 344 344 345 345 344 344 344 343 343 343 342 342 341 341 342 342 342 341 341 341 341 340 340 340
362 361 361 360 360 360 359 359 357 357 357 356 356 355 355 355 356 355 356 355 355 355 355 357 358 359 359 359 359 359 359 359 358 358 359 359 359 359 360 360 360 359 359 358 358 358 357 357 356 354 353 351 351 351 350 350 349 347 346 345 345 345 345 344 345 344 344 344 343 343 342 342 343 342 343 343 342 341 342 341 341 341 341 341 340
363 362 361 361 360 360 360 359 358 359 358 357 357 356 355 356 355 356 356 356 356 355 355 356 357 358 359 359 359 359 359 359 358 358 358 358 359 359 359 359 360 359 359 358 358 358 357 357 356 355 354 353 352 352 351 350 350 348 347 345 345 346 345 345 345 344 344 344 344 343 342 341 342 342 343 343 342 342 342 341 341 341 340 340 341
363 363 363 362 361 361 360 360 360 359 358 358 357 356 356 356 356 355 356 356 356 356 355 356 356 358 359 359 359 359 358 359 359 359 358 358 359 359 359 359 359 359 359 358 357 357 357 356 356 356 355 354 354 353 352 351 350 350 348 346 345 345 345 345 345 345 345 344 344 344 343 342 342 342 342 342 343 342 342 342 342 341 340 340 340
365 365 364 363 362 362 361 361 361 360 359 359 358 357 356 356 356 356 356 356 357 357 356 356 357 357 358 359 359 359 358 358 359 359 359 359 359 359 358 359 359 359 359 359 358 357 357 357 357 356 356 355 355 354 353 353 352 351 350 349 347 346 345 345 345 345 345 344 344 344 343 343 343 342 342 342 342 342 343 342 342 341 341 341 340
366 366 366 365 364 364 363 362 361 360 361 359 359 358 357 357 356 356 356 356 356 357 357 357 357 357 358 358 359 359 358 359 358 359 359 359 359 359 359 358 359 359 359 359 358 358 357 357 357 356 356 356 356 355 354 354 353 353 351 350 349 348 347 346 346 345 345 344 344 343 344 343 343 343 342 342 342 342 342 342 342 341 341 341 340
366 367 367 366 366 365 364 363 362 362 361 359 359 359 358 357 356 355 355 356 356 357 357 357 358 358 357 358 358 359 359 359 359 358 358 358 359 359 360 359 359 359 359 359 358 358 358 357 357 356 357 357 356 356 356 355 354 353 353 352 350 350 349 348 347 347 346 345 344 344 343 343 342 342 341 342 342 341 341 342 342 341 341 341 341
366 367 367 367 367 366 365 364 363 362 361 360 360 359 359 358 357 357 356 356 355 355 356 356 357 357 357 356 357 358 359 359 359 360 359 359 359 359 360 360 360 359 359 359 359 359 359 358 358 358 357 357 357 356 356 356 355 354 353 352 352 351 350 350 349 349 348 347 346 345 344 343 342 341 341 342 342 342 341 341 341 341 341 341 341
364 365 367 367 367 367 366 365 363 363 362 360 360 359 359 358 358 357 356 355 355 355 355 357 357 357 357 357 356 357 357 358 359 359 359 360 359 360 360 360 360 360 359 359 359 359 359 359 359 359 358 358 358 357 357 357 356 355 354 353 353 352 352 351 350 350 350 349 348 347 346 345 344 342 342 342 342 342 342 342 341 341 341 341 341
363 364 365 367 367 367 367 366 365 364 362 361 360 359 359 359 359 358 356 356 356 355 355 356 356 357 358 358 357 358 357 357 359 359 360 360 360 360 361 360 360 360 360 359 359 359 360 360 360 360 359 359 358 358 358 358 357 356 354 354 353 352 352 351 351 351 351 351 349 349 348 347 345 345 344 343 342 342 342 342 342 341 341 340 340
363 362 364 366 366 367 366 366 366 364 363 362 360 360 359 359 359 358 357 357 355 355 355 355 356 357 358 359 359 358 358 358 359 360 360 361 361 361 361 360 360 359 360 360 360 360 360 359 360 360 360 359 360 360 359 358 358 357 356 355 354 353 353 352 351 351 351 351 350 350 349 348 347 346 345 345 344 343 342 342 342 341 341 340 340
362 363 362 364 365 366 366 367 366 365 364 364 362 362 361 359 359 358 358 358 356 355 355 355 355 356 357 358 359 359 360 359 359 360 360 361 362 362 362 360 359 359 359 359 359 360 360 359 359 359 360 359 359 359 359 359 359 358 357 356 355 354 354 353 353 352 351 351 350 350 349 349 348 347 347 345 345 344 344 342 342 342 341 340 341
361 363 363 363 364 364 366 367 366 366 366 364 363 363 362 361 360 359 359 358 357 356 356 355 356 355 356 357 358 359 360 360 361 360 360 360 362 362 362 361 359 359 359 359 360 360 360 360 360 359 359 359 359 359 359 359 359 358 358 357 356 356 356 355 355 354 353 352 351 351 350 350 349 348 347 346 345 345 344 344 343 342 341 341 341
358 360 360 361 363 364 365 366 366 366 365 365 365 364 363 363 362 360 360 360 359 358 357 356 356 356 356 357 357 358 359 360 361 361 361 361 361 362 362 362 361 361 360 360 361 361 360 361 360 360 360 360 359 359 358 359 359 358 358 357 357 357 357 356 355 354 353 352 351 351 351 350 348 348 347 346 346 345 345 345 344 344 343 342 341
359 357 357 360 362 363 363 364 365 366 366 365 365 365 364 364 363 362 361 361 361 360 359 358 357 358 358 358 358 359 360 360 360 361 361 362 361 361 362 363 363 363 362 360 361 361 361 362 361 361 362 361 361 361 360 359 360 359 359 358 358 358 358 357 356 356 354 353 351 350 350 350 348 348 347 347 346 346 345 345 345 344 344 343 342
362 358 355 357 361 363 363 364 365 365 366 366 365 365 365 365 364 363 363 363 363 362 361 360 360 359 360 360 360 362 361 361 361 362 362 363 363 362 362 363 363 364 362 362 362 362 362 363 362 362 363 362 363 362 362 361 360 360 360 360 360 360 359 358 357 355 354 354 352 351 351 351 349 349 348 347 347 346 346 346 345 345 345 344 343
364 363 358 356 359 362 363 364 366 366 366 366 366 365 365 365 365 366 365 364 364 364 364 363 362 361 361 362 362 363 364 364 364 364 363 364 363 363 364 364 363 363 363 363 363 363 363 363 363 363 363 363 364 363 363 362 362 361 361 361 360 360 360 358 356 355 354 354 353 353 352 352 351 350 349 348 348 348 347 347 346 346 345 344 343
368 368 361 357 358 362 363 366 366 367 367 366 366 366 367 367 367 367 366 367 366 365 365 365 364 364 363 363 363 363 364 365 366 365 366 366 365 365 365 365 365 364 363 363 362 362 363 363 362 363 362 362 363 363 363 363 362 362 362 361 361 360 359 356 354 353 353 353 353 354 354 353 353 352 350 349 348 348 347 346 345 345 345 343 342
371 370 366 359 359 363 365 367 368 368 368 368 367 368 368 368 368 368 368 368 367 367 367 366 366 365 365 364 363 364 364 365 366 367 366 366 366 366 365 365 365 364 363 363 362 361 361 361 361 361 361 361 362 362 362 362 362 362 362 361 360 359 358 355 352 351 352 353 354 354 354 355 354 351 347 347 347 347 347 346 345 344 343 342 340
370 372 368 363 362 364 366 367 369 370 370 370 369 369 369 369 369 369 369 369 368 368 368 367 366 366 366 365 366 365 364 365 365 366 367 367 368 367 366 364 363 363 362 361 361 360 358 358 359 359 360 360 360 360 360 360 359 359 359 358 357 356 356 354 350 349 350 351 353 354 354 354 353 348 342 343 346 348 347 346 345 343 342 341 339
370 372 369 365 365 366 367 369 371 371 371 371 371 371 372 371 370 370 370 370 370 370 369 368 368 368 367 367 366 365 362 361 361 362 363 364 364 364 363 363 362 361 361 360 359 358 357 356 355 355 355 356 356 355 355 354 354 354 354 353 353 352 352 352 350 348 348 348 349 350 351 352 352 347 342 342 345 347 346 345 344 342 341 340 339
369 371 371 369 368 368 369 370 371 371 370 368 367 367 368 370 371 372 371 372 371 371 370 370 370 369 368 368 367 364 359 357 356 358 358 358 359 359 359 358 357 356 355 355 355 354 352 350 348 346 345 344 343 343 342 342 342 342 343 344 345 345 347 347 347 346 346 346 346 347 347 349 350 348 344 342 344 346 346 344 343 342 341 339 338
368 369 372 372 372 371 372 370 370 369 367 363 359 357 358 363 368 369 368 370 372 372 371 370 370 369 368 366 366 364 359 353 349 349 351 351 350 347 346 344 342 341 339 339 340 339 337 336 335 334 333 333 332 332 333 332 332 333 333 334 335 337 338 340 341 342 343 343 344 344 344 345 346 347 345 343 343 344 344 344 342 342 340 338 338
367 368 370 373 373 373 371 368 366 365 362 360 357 353 352 354 359 362 365 367 370 370 371 371 369 368 367 365 362 357 353 349 345 343 342 340 337 335 334 333 332 331 331 330 330 330 330 330 331 331 331 331 331 331 331 331 331 331 331 331 331 331 333 334 335 336 337 339 340 341 342 342 343 344 345 344 343 343 343 343 342 341 339 338 338
365 367 368 371 373 372 370 366 362 358 355 353 354 354 350 344 342 346 353 358 362 363 362 362 361 358 357 357 354 346 340 339 338 336 334 333 333 332 332 331 330 330 330 330 330 331 331 331 331 331 331 331 330 330 330 330 330 330 330 330 330 330 330 330 331 331 332 334 334 336 338 339 340 342 343 343 343 343 343 343 342 340 339 338 338
364 367 368 369 369 369 367 363 357 353 350 348 348 350 348 341 334 334 338 343 347 348 347 347 347 345 344 345 344 339 336 334 333 333 332 332 331 330 330 330 330 330 330 331 331 331 331 331 330 330 330 330 330 329 329 329 329 328 328 329 329 329 328 329 329 329 330 330 331 332 333 335 337 339 340 341 342 342 342 342 342 340 339 338 337
361 362 365 368 367 363 359 356 351 348 346 345 343 342 341 339 335 333 332 334 335 336 336 336 338 337 336 336 335 334 333 332 331 330 330 329 330 330 330 330 330 330 330 330 330 330 330 330 329 330 330 329 329 328 327 327 326 326 327 327 327 327 327 327 327 328 328 329 329 330 330 332 333 335 337 339 340 341 341 342 341 341 339 338 337
354 354 358 361 361 358 353 350 347 344 342 340 339 337 335 334 334 333 332 332 332 332 333 334 333 333 332 331 330 330 330 330 329 330 329 330 330 330 329 329 329 330 330 330 329 329 329 328 328 329 329 328 327 326 325 325 325 325 325 325 325 325 325 325 325 326 326 326 327 328 329 330 331 333 334 337 338 339 340 341 341 341 340 338 337
350 350 352 354 355 352 348 346 344 342 339 337 336 335 335 334 333 332 332 332 333 333 334 334 334 334 334 333 333 332 331 330 330 329 330 330 330 329 328 329 330 330 330 329 328 328 327 327 327 327 327 326 326 325 325 325 325 325 325 325 324 324 324 324 324 324 324 325 325 326 327 328 329 331 332 334 336 338 339 340 341 341 339 338 338
347 347 348 350 350 348 345 342 340 339 337 337 337 336 336 335 334 334 334 333 333 333 334 334 335 335 335 335 335 334 333 332 330 329 329 330 330 329 328 329 330 330 329 328 327 326 326 326 326 326 325 325 325 325 325 325 325 325 324 324 324 324 324 324 324 324 324 324 324 325 326 327 329 330 332 333 335 336 337 339 340 340 338 337 336
345 346 346 347 347 345 343 341 340 339 339 339 338 338 337 337 336 335 334 333 332 332 333 335 335 335 335 335 335 335 334 333 332 330 329 329 329 329 328 329 329 329 329 328 326 325 324 325 325 325 325 325 325 325 325 324 324 324 324 324 324 323 324 324 324 323 324 324 324 324 324 325 327 329 331 333 334 335 335 336 336 337 337 335 334
344 345 345 344 344 343 342 341 341 340 340 340 339 338 338 338 338 335 332 330 328 327 329 332 334 335 334 334 335 334 334 333 331 330 330 329 329 329 329 329 329 329 329 327 326 323 323 324 325 325 324 325 325 324 324 324 323 323 323 323 323 323 323 323 323 322 322 322 323 323 324 324 326 328 330 332 333 334 335 335 335 334 332 330 330
341 342 342 341 340 340 340 340 340 340 339 340 339 338 338 339 338 335 333 331 329 327 327 330 332 334 334 334 333 332 332 332 332 331 330 330 330 329 329 329 329 328 328 326 324 323 322 322 323 324 324 324 324 324 323 323 322 322 322 322 322 322 322 322 322 322 321 321 322 322 323 323 324 324 325 326 327 329 330 331 332 330 328 326 325
339 338 338 337 337 337 337 336 336 336 336 336 337 337 338 338 337 337 336 335 333 331 331 331 331 331 333 333 332 332 332 333 332 331 330 330 330 330 330 330 329 328 327 326 325 324 322 321 322 323 323 323 322 321 322 322 321 320 320 321 321 321 321 321 321 322 321 320 320 321 321 322 322 322 323 323 323 324 324 324 325 324 324 323 322
335 335 334 334 333 333 332 331 331 331 331 331 331 332 333 334 334 335 335 334 333 331 330 330 329 330 331 332 333 333 333 333 333 332 331 331 330 330 331 331 330 329 328 327 327 325 323 321 320 321 321 321 319 319 320 320 319 318 319 319 320 320 321 321 321 321 321 320 320 320 321 321 321 321 321 321 321 321 321 321 321 321 321 321 321
333 332 331 330 330 329 328 327 327 327 326 326 325 326 327 327 327 328 328 327 326 326 325 325 326 328 329 330 331 332 332 332 332 332 332 332 332 331 330 330 330 329 328 328 327 326 324 322 320 320 320 320 319 319 319 319 318 318 318 318 319 319 319 320 321 320 320 320 320 320 321 321 320 320 320 320 319 319 318 318 319 319 319 319 320
330 329 328 327 326 325 325 324 324 323 323 322 322 322 322 322 322 321 322 321 320 320 320 320 322 324 325 327 328 329 328 328 329 330 330 331 332 331 330 330 330 330 329 328 327 326 325 324 322 320 319 320 319 319 319 319 318 318 318 318 318 318 318 319 319 319 319 320 320 320 321 322 321 321 320 320 319 319 318 318 317 317 317 317 317
328 327 325 324 323 322 322 321 320 320 319 319 318 318 317 318 317 317 317 316 316 315 315 316 317 318 319 321 323 324 324 324 326 327 328 329 329 330 330 330 330 330 330 329 327 326 326 325 324 322 321 321 321 320 320 320 319 319 319 319 318 317 317 318 318 318 318 319 319 319 320 321 322 322 321 321 320 320 319 318 317 317 317 317 317
325 324 323 322 321 320 319 318 318 317 316 316 315 315 314 314 314 314 314 313 312 312 312 312 312 313 314 315 317 318 320 322 323 324 325 325 325 326 328 329 330 330 329 329 328 328 328 327 325 324 323 323 322 322 322 322 321 320 320 320 319 318 318 318 319 318 319 319 320 321 321 321 322 322 322 321 320 320 321 320 319 318 318 318 318
321 321 320 319 319 318 317 317 316 315 315 314 314 313 312 312 312 311 311 311 310 310 310 309 309 310 310 311 312 313 314 317 318 320 320 322 322 323 324 325 328 329 329 329 329 329 328 327 327 326 326 325 324 323 323 323 323 323 322 321 320 320 320 320 320 320 320 320 321 322 322 322 322 321 319 318 317 318 319 320 320 320 319 320 320
317 317 317 317 316 315 315 315 314 314 313 313 312 312 311 310 310 309 309 308 308 308 308 307 307 307 308 308 308 309 310 312 314 315 317 318 320 320 320 320 321 323 325 327 328 328 328 327 327 327 328 327 326 325 324 324 324 324 324 323 322 322 322 322 322 322 321 321 321 322 322 322 321 320 319 318 317 316 317 317 317 318 318 318 318
315 314 314 314 313 313 313 312 312 311 311 311 311 310 309 309 308 307 307 306 306 306 305 305 305 306 306 306 306 307 308 309 310 311 313 314 315 316 316 316 316 317 319 321 323 324 325 325 325 325 326 326 326 325 325 324 324 324 324 323 323 323 324 324 323 323 323 323 323 323 323 323 322 321 320 319 318 317 317 317 317 317 318 318 317
313 312 312 311 311 310 310 309 309 309 308 308 308 307 307 306 306 305 305 304 304 304 304 303 303 304 304 304 304 304 305 305 306 307 308 309 310 312 312 312 312 312 313 314 315 317 319 320 320 321 322 323 324 324 325 325 324 324 324 324 323 323 323 324 323 323 323 323 324 324 323 323 322 322 321 320 320 319 319 318 318 318 319 319 319
312 312 311 310 309 309 308 307 307 306 306 305 305 304 303 303 303 302 302 301 301 300 301 301 301 301 302 302 302 302 302 302 302 303 304 305 306 307 308 309 309 310 310 310 311 312 313 314 315 316 317 319 320 321 322 323 323 323 323 323 323 323 322 322 322 322 322 322 322 322 321 321 321 320 319 319 318 319 319 319 318 318 319 319 319
Wind_Speed
41 40 40 40 39 39 39 40 39 38 36 36 36 37 37 38 38 37 36 36 35 34 33 33 33 33 33 33 33 32 32 33 32 32 33 33 32 31 31 30 30 31 30 28 27 27 27 27 26 28 29 29 29 27 25 23 22 21 22 24 25 25 24 23 17 16 19 20 18 19 20 21 23 24 24 27 30 30 28 27 25 23 22 21 20
41 41 40 40 40 40 40 39 39 37 36 35 36 36 36 37 37 36 36 36 36 35 35 34 34 34 34 35 35 34 34 34 34 34 35 35 34 33 33 32 32 32 32 31 31 30 30 30 28 27 28 31 32 31 30 27 24 22 22 24 27 27 26 26 23 18 20 23 22 20 20 21 22 24 25 27 29 29 29 28 26 25 24 22 21
42 42 41 40 41 40 39 39 38 38 37 36 37 36 36 36 35 35 36 36 36 37 37 37 36 35 35 36 36 36 36 36 36 37 37 36 36 35 34 34 34 34 34 34 34 33 32 32 32 29 28 30 32 33 33 31 28 26 25 26 27 27 27 27 26 22 22 24 24 22 22 22 22 23 24 27 28 29 30 29 27 26 25 24 23
41 41 40 40 40 40 40 39 38 38 38 38 38 37 37 36 35 35 36 35 36 37 38 37 37 37 37 37 38 38 38 38 38 38 38 38 37 37 36 36 36 37 37 37 36 35 35 35 35 33 31 31 32 33 34 34 33 31 28 27 28 29 29 28 28 27 25 24 25 25 24 23 23 21 23 26 29 30 30 29 28 27 26 26 25
39 40 40 40 40 40 40 40 39 39 39 38 38 38 38 37 36 37 36 36 36 37 37 37 38 39 40 40 40 40 40 40 39 39 40 39 39 39 38 37 38 38 39 39 38 38 37 38 37 35 34 34 33 33 34 35 35 34 32 30 30 30 30 29 30 29 27 26 27 27 24 23 23 21 22 26 29 30 30 30 28 28 28 28 27
38 39 39 39 39 40 41 40 40 40 40 39 38 38 38 38 38 38 38 38 37 36 37 38 39 40 42 42 41 41 41 40 40 40 40 40 40 40 39 39 39 39 40 40 40 39 39 39 39 37 36 36 36 36 35 36 36 35 35 34 32 31 30 31 30 30 30 30 30 28 27 25 24 23 23 26 29 30 31 31 30 30 30 30 29
38 38 38 38 38 39 40 41 41 40 40 40 39 39 39 39 38 39 39 39 38 37 38 39 40 41 42 42 42 42 41 41 41 41 41 40 40 40 40 40 40 40 40 40 40 40 40 40 39 38 37 38 38 38 37 36 36 36 37 37 35 33 32 32 31 31 31 31 30 29 29 29 27 26 25 25 28 30 31 31 31 32 33 32 30
38 38 37 37 38 39 40 40 41 40 40 40 40 39 39 39 39 39 39 39 39 40 40 40 41 41 42 42 42 42 41 41 41 41 41 41 40 40 40 40 40 40 40 40 40 39 39 39 39 39 39 40 40 39 39 38 37 37 37 38 37 35 33 32 32 31 31 30 29 29 29 28 29 28 25 24 26 31 33 33 32 32 33 33 31
37 37 36 38 39 40 39 38 38 39 38 38 39 40 39 39 39 39 39 39 40 41 41 40 40 41 42 42 42 41 41 41 42 42 42 42 41 41 41 41 40 40 40 40 40 40 39 38 39 40 40 41 41 40 40 39 38 38 38 38 37 36 35 33 32 31 30 28 29 28 25 26 28 28 26 28 30 32 33 32 31 31 31 31 32
36 36 37 39 40 39 38 37 36 37 37 38 39 39 39 39 39 39 39 40 40 41 40 40 40 41 41 41 41 41 41 42 43 44 45 44 43 42 41 40 40 39 39 39 39 39 39 39 39 40 41 41 41 41 41 41 40 40 40 39 38 37 36 34 34 33 29 27 28 27 24 25 29 30 30 33 34 32 30 30 31 31 27 25 27
35 36 37 38 37 37 37 36 36 36 37 38 39 39 40 39 38 39 39 40 40 40 40 40 41 41 41 41 41 41 42 43 44 45 46 46 44 42 40 40 39 39 38 38 38 39 39 39 39 39 40 41 42 42 42 43 43 43 42 42 41 40 38 37 36 35 31 29 30 28 25 28 32 32 32 33 32 32 31 31 31 29 24 21 21
33 34 35 36 36 36 37 36 36 36 37 38 39 39 38 38 38 38 39 40 40 40 40 41 42 41 40 40 41 42 43 44 45 46 47 47 46 43 41 40 39 39 39 38 38 38 38 38 38 38 39 40 42 43 43 44 45 45 45 44 44 43 42 41 40 37 34 32 31 30 30 32 33 33 34 35 34 34 33 32 32 30 28 26 24
33 35 36 36 36 37 37 36 36 37 37 38 38 37 37 38 39 39 39 40 40 40 41 41 41 41 41 40 41 42 43 44 45 46 46 47 47 45 43 41 39 39 39 38 38 38 38 37 37 38 39 40 41 42 43 44 45 46 46 46 45 45 45 46 46 42 39 36 34 35 37 36 36 37 39 38 35 34 32 32 33 32 31 31 33
33 35 36 37 37 37 37 37 37 37 38 38 37 37 38 39 39 39 39 39 39 40 40 41 41 42 42 41 41 42 43 44 45 46 46 46 46 46 45 42 40 39 39 38 38 38 39 38 37 38 38 38 39 40 41 43 43 44 45 46 47 48 48 49 49 47 44 41 39 41 43 41 41 44 43 38 35 36 36 35 36 35 36 38 40
32 34 36 37 37 37 37 36 36 37 37 38 37 38 39 39 39 39 39 39 40 40 40 40 41 42 42 42 42 41 42 44 44 45 47 46 46 46 46 44 41 39 39 39 39 39 39 39 38 39 38 37 37 38 40 41 41 42 43 45 47 49 50 50 50 49 49 48 47 48 49 46 45 46 44 38 38 40 39 39 39 38 38 39 38
31 32 34 36 36 36 36 36 36 37 37 37 37 38 39 40 40 40 39 38 39 39 40 40 40 41 41 41 41 42 42 43 43 45 46 46 45 44 45 44 42 41 40 39 39 39 39 39 39 39 38 38 38 38 39 39 40 40 41 43 45 47 50 51 50 51 52 52 52 53 53 51 48 48 45 41 40 40 38 38 35 32 31 31 30
31 31 32 35 36 37 37 37 36 37 37 37 38 38 39 40 40 39 38 38 37 38 39 39 39 40 39 40 41 41 42 41 41 43 43 43 43 44 44 44 43 42 41 40 40 40 39 40 39 39 39 39 39 39 39 39 40 40 41 42 42 45 48 47 46 49 52 54 55 55 56 55 52 50 47 45 43 40 36 34 31 30 29 25 23
31 31 32 34 36 38 39 39 38 38 38 38 38 38 39 39 39 39 39 39 39 40 39 38 38 38 38 39 40 39 39 38 38 39 39 40 41 43 44 43 42 42 42 41 41 40 39 40 40 39 40 40 39 40 39 39 40 41 40 39 40 44 45 41 39 44 48 50 53 54 56 57 55 53 50 49 47 43 40 38 35 33 31 26 23
31 32 32 34 36 39 40 41 40 39 39 39 39 39 39 40 39 39 40 40 40 40 38 37 37 38 38 38 38 37 36 35 34 34 35 36 39 41 43 42 41 40 40 40 40 40 39 39 39 41 42 42 41 41 40 40 41 42 41 39 39 44 42 36 37 42 42 44 48 50 54 57 56 55 54 52 49 47 46 45 40 36 33 31 29
31 33 33 33 36 38 39 41 42 41 41 40 39 39 40 39 38 38 38 38 38 37 37 37 37 37 37 37 37 36 36 34 33 32 32 33 35 39 42 42 40 39 39 39 38 38 38 38 39 40 42 42 43 43 43 43 43 43 42 40 41 45 42 37 39 42 42 43 46 47 49 52 52 53 54 52 49 48 49 49 46 42 39 36 34
26 30 32 33 34 36 38 40 41 42 42 42 40 39 38 37 37 37 36 36 35 35 36 36 36 35 35 35 35 36 35 34 34 33 33 33 33 35 40 43 42 40 39 39 38 36 36 37 38 39 41 42 43 43 44 45 45 45 45 45 46 48 45 40 41 41 41 44 45 44 46 47 45 46 47 48 49 49 49 51 50 48 46 43 38
16 23 26 29 32 35 37 38 39 40 40 40 38 36 36 35 35 35 35 34 34 34 34 34 33 33 32 33 33 34 33 33 33 33 34 34 34 34 37 40 40 39 38 37 36 35 35 36 38 39 40 41 42 43 43 44 44 46 47 48 49 49 47 46 45 42 39 40 39 40 43 43 41 41 42 44 47 47 48 51 52 52 52 53 48
10 17 24 26 28 32 35 37 38 37 37 37 37 35 34 34 33 34 34 32 32 32 32 31 30 29 29 30 30 30 30 30 31 32 32 33 33 33 35 36 37 38 39 37 35 35 36 37 38 38 39 40 41 41 42 41 42 44 46 47 48 49 49 49 47 43 39 37 36 37 40 41 39 38 39 41 43 44 46 50 52 54 56 57 54
7 13 21 25 27 29 32 34 36 36 36 36 36 34 32 32 31 32 33 32 30 29 28 28 27 26 25 26 26 26 25 25 27 29 30 30 30 31 32 32 33 35 38 38 36 34 34 33 33 33 34 36 37 38 39 40 40 41 43 44 45 47 48 48 47 43 39 37 36 37 40 40 39 37 39 40 40 42 46 49 52 56 57 53 49
7 10 16 23 25 27 29 32 33 34 34 34 34 32 31 30 30 30 31 30 28 26 25 25 25 24 24 24 24 23 22 22 24 26 27 28 28 28 28 29 30 33 36 37 34 31 29 29 28 28 29 31 32 33 35 37 37 38 40 40 41 44 46 46 43 39 37 36 37 38 40 42 41 39 36 35 36 38 42 46 49 51 48 41 37
8 9 12 18 22 23 25 27 29 29 30 32 32 32 32 32 30 29 28 28 27 25 23 23 23 23 22 22 22 21 21 20 21 22 24 25 27 27 28 29 30 32 35 36 35 32 30 28 26 25 24 24 24 26 29 31 32 33 35 36 37 40 42 42 39 37 36 37 38 39 42 44 42 34 29 31 36 40 42 44 45 43 37 32 30
9 8 11 15 18 21 22 24 24 24 25 27 28 28 30 31 29 27 26 25 23 21 21 21 21 21 21 20 20 20 19 18 17 17 18 20 22 24 26 27 29 30 31 32 33 33 32 29 28 27 27 27 27 28 29 30 30 31 32 33 33 35 37 38 37 37 38 38 39 39 41 41 36 26 24 33 43 46 45 44 42 36 31 31 32
11 7 11 14 17 20 22 22 22 21 20 20 20 20 22 24 24 25 26 25 23 22 21 21 22 22 22 21 19 16 15 15 14 13 13 13 14 15 15 16 17 18 19 21 22 23 24 24 23 24 25 26 26 27 27 27 28 29 30 30 31 31 33 34 35 37 38 39 39 39 39 39 34 25 25 34 42 45 43 42 40 35 32 33 35
10 6 10 14 16 19 21 21 22 22 21 19 17 14 13 16 18 20 22 24 24 24 24 24 25 24 22 20 18 17 16 15 13 12 11 10 9 9 9 8 8 7 8 9 9 10 11 11 11 12 12 14 16 18 19 21 23 24 25 25 26 27 29 30 31 34 36 36 37 37 36 36 34 29 27 33 39 44 45 43 41 38 35 36 36
7 3 6 11 15 17 19 21 23 25 24 22 19 15 10 10 13 15 17 20 22 23 23 23 23 22 19 17 17 18 18 16 14 12 11 10 9 8 8 7 6 5 5 5 5 5 6 6 7 8 9 10 12 14 16 18 20 22 24 24 24 26 27 28 30 32 33 34 35 36 36 35 35 33 30 32 37 42 44 44 42 39 37 36 36
5 2 3 9 14 18 20 22 24 25 24 24 23 20 18 14 10 9 9 12 15 17 18 18 17 17 17 16 15 15 15 16 14 12 11 9 8 7 6 5 4 3 3 3 2 1 2 4 5 7 8 9 11 13 15 17 19 22 24 26 27 27 28 29 30 32 33 34 35 36 35 35 36 35 34 34 36 38 40 41 40 40 39 39 38
2 3 4 7 13 18 21 24 24 24 24 24 24 25 25 24 21 17 13 11 10 11 12 12 13 13 12 14 18 20 19 16 14 12 10 9 7 7 8 8 8 9 7 7 8 9 9 9 9 10 10 11 12 13 15 17 19 20 22 24 26 28 29 31 33 33 34 35 35 35 35 36 36 37 36 36 36 36 37 37 38 39 40 41 41
1 5 7 8 12 18 22 24 24 24 25 25 25 26 27 26 25 24 23 21 19 18 17 17 17 17 16 14 16 19 18 16 13 12 11 11 10 11 11 12 13 12 11 11 13 13 11 10 10 10 10 11 12 13 15 15 16 18 19 20 23 26 29 31 33 34 34 35 36 36 37 37 37 37 37 37 36 36 36 36 36 38 38 39 39
5 6 8 10 14 18 21 23 23 24 26 26 25 24 25 27 28 27 26 24 23 22 22 20 18 19 19 18 18 18 18 17 16 15 15 15 14 14 14 15 15 14 14 15 16 13 11 10 10 9 10 10 11 12 13 14 15 16 18 20 23 26 28 30 30 31 33 34 35 36 37 37 37 36 36 36 36 34 35 35 35 35 35 35 35
10 10 9 11 15 19 21 23 25 25 25 24 24 24 24 25 26 26 25 24 23 22 23 23 22 21 22 22 21 20 20 19 19 18 17 16 15 15 16 17 17 16 16 16 15 13 12 12 11 11 11 11 12 13 14 15 17 19 20 22 24 26 28 29 30 31 33 34 34 36 37 38 38 38 37 36 34 33 33 33 33 34 34 33 33
14 14 13 13 16 19 21 23 25 26 25 25 26 26 25 24 24 24 25 25 24 23 23 23 23 22 22 22 21 20 20 19 18 17 16 15 14 15 17 18 17 16 15 15 14 13 13 12 11 11 12 13 14 15 15 16 18 19 20 21 23 25 27 29 30 32 33 33 34 36 37 38 38 38 37 36 34 32 32 33 32 33 35 34 33
17 16 16 16 17 19 21 22 23 25 27 27 28 27 25 25 25 25 24 24 23 23 23 23 23 22 22 20 19 19 19 18 17 16 15 14 14 14 15 16 15 14 14 13 12 12 11 11 12 12 13 13 13 13 13 14 16 17 19 20 22 23 25 26 28 30 30 31 32 34 36 36 36 36 35 34 31 29 30 30 30 31 33 33 32
17 17 17 18 19 20 21 23 25 26 26 26 26 27 26 25 24 25 24 24 23 23 23 23 22 23 22 20 18 18 17 16 15 15 14 13 13 13 13 13 12 12 11 10 9 10 11 12 12 12 12 12 11 10 11 13 14 15 17 19 20 20 22 23 25 26 27 28 29 31 31 32 32 32 31 32 31 29 29 29 28 26 25 25 29
18 18 18 20 23 23 23 23 23 23 23 22 23 25 26 25 24 24 25 24 24 24 24 23 22 22 21 20 17 16 15 14 14 13 12 12 11 11 10 10 10 10 9 8 8 10 11 11 11 11 10 9 9 8 9 11 13 14 16 18 19 19 20 22 23 25 27 28 28 27 27 26 25 23 21 22 24 25 25 26 25 19 12 9 10
24 24 23 25 27 27 26 25 23 21 21 20 20 20 21 21 22 23 23 22 22 22 22 22 20 18 17 17 15 13 12 13 12 11 11 10 9 8 8 7 7 7 8 8 8 8 8 8 8 8 7 7 7 7 8 9 11 13 15 16 18 19 20 22 23 24 26 28 28 26 25 25 24 21 19 16 13 12 13 16 17 14 7 9 13
30 30 29 28 29 31 31 29 27 25 25 25 23 21 20 19 19 19 19 19 19 19 19 19 18 15 13 12 10 9 10 11 10 10 10 9 7 6 5 5 5 5 6 5 4 4 4 5 5 5 5 6 6 7 7 8 10 13 14 15 17 19 20 21 22 23 23 25 25 25 26 27 29 27 26 26 25 22 20 16 10 8 15 22 28
32 32 30 29 30 31 30 28 28 29 30 29 27 25 24 23 22 22 22 21 21 21 21 22 21 19 16 14 11 9 8 7 6 6 6 6 6 6 6 5 4 3 2 3 2 1 1 3 3 3 3 4 6 7 8 9 10 12 13 14 16 18 19 20 21 22 22 22 23 24 25 27 31 31 30 32 34 34 34 33 30 28 28 30 33
33 33 31 30 30 29 28 28 29 30 30 30 30 29 28 27 26 26 26 25 24 23 22 22 21 20 19 17 16 15 14 11 8 5 3 3 4 6 7 6 3 1 1 2 1 0 1 1 1 1 1 2 4 5 7 8 9 10 12 14 15 17 18 19 20 20 21 22 22 22 22 23 24 25 26 29 33 37 39 38 37 36 36 36 37
34 34 33 32 31 29 28 28 29 29 28 29 31 30 28 27 27 26 26 25 24 23 21 20 20 19 19 18 18 18 18 17 15 13 9 6 4 4 4 3 2 2 3 3 2 2 3 3 3 2 2 1 2 4 5 6 7 8 10 13 14 15 16 17 18 19 19 20 21 21 21 21 21 22 23 25 28 31 32 32 32 32 34 36 37
32 32 32 31 31 30 29 28 28 28 28 29 29 28 27 26 25 24 24 23 22 21 20 19 19 18 18 18 19 18 18 17 17 16 15 12 9 6 4 2 3 3 4 4 4 4 6 6 5 5 4 3 3 3 4 5 6 7 8 10 12 13 13 13 14 15 16 18 19 20 20 21 21 23 24 25 26 27 26 25 25 25 26 27 29
31 30 31 30 30 29 28 28 28 28 28 27 27 26 26 25 24 23 22 21 20 18 18 18 18 18 17 18 18 18 17 16 16 15 15 14 11 9 8 5 2 3 4 4 4 5 7 8 7 7 6 6 5 5 5 5 5 6 8 9 9 9 9 9 9 10 12 13 14 15 16 18 19 21 23 24 25 25 24 23 23 24 24 24 25
31 29 29 29 29 28 27 27 27 27 27 26 26 25 25 25 25 25 24 23 23 22 20 20 20 19 18 18 18 17 16 16 15 14 13 13 12 11 11 10 7 3 2 3 5 5 6 7 7 7 7 8 7 7 6 6 6 7 7 8 7 7 7 7 7 7 7 8 9 9 11 12 14 16 18 19 21 22 23 22 22 22 21 21 21
32 30 29 29 29 29 27 27 27 26 26 25 25 25 25 25 25 25 24 24 25 25 23 22 21 20 19 18 18 17 17 17 16 15 14 13 12 11 11 11 11 9 6 2 3 4 5 5 5 6 6 6 7 7 7 6 7 7 8 8 8 8 7 8 7 6 6 6 5 5 6 7 9 10 12 14 15 17 19 20 20 19 20 20 20
31 30 29 29 29 29 28 27 27 26 26 25 25 25 24 24 24 24 24 23 23 23 23 22 21 19 19 19 19 19 19 19 19 18 17 15 13 12 11 11 11 11 9 7 4 2 1 2 4 5 5 5 6 6 7 7 6 7 7 8 8 8 7 8 8 8 7 7 7 6 5 4 4 6 7 8 9 10 11 12 13 12 13 15 17
30 30 30 29 29 29 28 29 28 26 26 26 26 25 25 24 23 23 23 23 23 23 22 22 21 20 19 19 19 20 21 21 21 20 19 18 17 15 14 13 13 13 12 11 9 7 5 4 4 4 3 4 5 5 7 8 8 8 8 7 7 7 7 7 7 7 7 7 7 6 6 5 3 4 4 4 4 4 4 5 6 6 6 7 9
29 30 30 30 29 29 29 29 29 27 27 27 26 26 26 25 25 24 24 25 25 25 25 25 24 23 22 21 20 19 20 21 21 21 21 20 19 18 18 17 17 17 17 16 15 13 12 10 9 7 6 4 4 4 5 7 7 7 7 7 8 8 7 7 6 5 5 6 6 5 5 4 3 3 3 3 2 2 1 1 1 2 4 5 7
Wind_Direction
200 201 203 204 205 207 208 210 211 212 212 212 212 212 212 212 213 214 214 215 217 218 219 220 221 221 221 222 224 225 226 226 226 225 224 225 225 224 223 223 224 226 226 225 224 224 226 229 230 227 223 222 224 227 230 233 236 240 242 239 233 231 229 223 222 242 249 246 247 247 246 246 246 246 247 245 239 235 236 237 239 243 246 248 248
200 202 203 204 206 208 209 209 210 211 212 214 215 215 214 213 213 213 213 214 214 216 218 220 221 221 221 222 223 225 226 226 225 225 224 224 224 224 223 223 224 224 225 226 225 225 226 228 230 230 227 226 226 228 230 233 235 238 238 235 232 230 228 226 225 233 247 249 246 244 245 245 245 245 246 244 238 234 232 234 236 240 244 248 250
200 202 203 205 207 208 209 209 210 210 212 214 216 217 217 216 214 213 213 214 214 216 218 219 220 221 221 222 224 225 225 225 224 223 224 224 224 224 223 223 223 223 223 225 226 225 225 227 229 229 228 229 229 229 231 233 235 237 237 233 231 231 230 229 230 232 243 250 249 244 241 243 245 245 245 243 239 234 233 234 238 240 242 245 248
200 201 202 205 206 207 208 209 209 210 211 213 215 217 218 218 217 215 214 214 214 216 217 218 219 220 222 223 224 225 225 224 224 223 223 224 224 225 224 224 224 223 224 226 226 226 225 227 229 229 228 229 231 231 231 233 235 237 238 236 234 235 234 232 234 237 241 249 252 249 244 243 245 245 244 240 235 233 234 237 241 243 244 244 246
199 201 202 204 206 207 208 208 209 209 211 213 215 217 218 218 218 217 216 215 215 216 216 217 218 220 222 223 224 225 225 224 223 223 223 224 224 225 226 226 225 225 226 227 227 226 226 228 230 229 227 228 231 232 232 232 234 236 238 239 238 238 238 237 238 239 241 245 251 253 250 246 245 244 241 237 233 233 235 239 242 244 244 245 246
199 201 202 204 205 207 207 208 208 210 211 213 214 216 217 218 218 218 217 216 216 216 216 216 218 219 221 223 224 225 225 224 224 224 223 223 224 225 226 227 227 227 227 228 228 228 228 230 231 229 227 228 230 232 233 233 234 235 237 239 240 240 239 239 240 240 241 243 248 251 250 248 245 242 238 236 235 236 236 238 241 242 242 243 245
199 201 202 204 206 208 208 208 208 210 211 213 214 216 217 217 218 218 218 217 216 216 216 217 218 220 222 223 224 224 224 224 224 224 224 223 224 224 225 226 227 229 229 230 230 230 230 231 232 230 229 230 231 232 233 234 234 235 236 238 240 240 240 240 240 240 240 243 245 247 247 247 246 244 241 239 238 239 238 236 236 236 236 239 241
199 200 201 203 207 209 210 209 209 210 212 213 215 216 216 217 218 218 218 217 217 217 218 218 219 220 222 223 224 224 224 223 224 224 224 224 224 225 226 226 227 228 230 232 232 232 232 233 233 233 232 233 234 234 234 235 235 235 236 237 238 240 240 240 239 238 239 241 244 246 246 246 245 244 243 237 233 235 234 232 233 234 234 235 238
199 199 200 203 207 210 211 210 210 210 212 214 215 216 217 217 218 218 218 218 218 219 219 220 220 221 223 223 224 224 224 224 224 224 224 224 224 226 227 227 227 228 230 232 233 234 234 234 235 236 236 237 237 237 237 237 237 236 237 236 235 236 238 239 238 237 236 238 242 244 244 244 242 239 236 232 230 233 233 231 233 237 237 237 237
198 199 201 205 207 209 210 210 210 210 211 214 216 216 217 217 218 218 219 219 220 220 220 221 221 222 223 223 224 224 224 225 225 226 226 225 225 226 227 228 228 228 229 231 233 235 235 236 237 238 239 240 240 240 240 240 240 241 241 239 235 233 233 234 236 236 235 236 239 239 238 241 241 237 235 236 235 236 235 231 232 236 236 237 239
198 199 203 206 207 207 208 209 210 211 212 214 216 217 217 217 218 218 219 220 220 220 220 221 222 223 223 224 224 224 224 226 226 227 228 228 226 225 227 229 229 229 230 230 232 235 236 237 238 239 239 240 242 242 243 242 242 243 244 243 241 237 234 232 234 234 233 234 238 237 234 239 242 239 237 239 238 236 235 232 232 231 227 229 237
199 201 204 207 207 207 208 208 209 211 212 214 215 217 217 217 217 218 219 220 221 220 220 221 222 223 224 224 225 225 226 227 227 228 229 229 228 227 227 229 230 231 231 232 233 234 236 237 238 239 239 240 241 242 243 244 244 245 245 245 244 243 241 239 237 235 232 233 236 235 233 238 242 240 237 237 236 235 234 232 230 227 223 224 228
199 202 205 206 207 207 207 208 209 210 212 214 215 216 216 217 217 218 219 220 221 221 221 221 222 223 223 225 226 226 228 229 229 229 230 231 230 229 228 230 231 233 233 234 235 235 236 237 238 239 240 240 241 241 242 244 245 246 246 246 245 245 245 245 245 242 239 236 236 237 237 237 240 241 240 237 233 231 231 230 229 226 223 225 229
199 201 203 205 206 207 207 207 208 210 212 213 214 214 215 217 218 218 220 220 221 222 223 223 223 223 224 225 226 228 229 230 230 231 231 232 231 230 230 231 232 234 235 235 236 237 237 237 238 239 240 240 240 241 241 243 244 245 245 245 244 244 245 245 246 246 244 241 240 243 245 242 242 246 246 240 234 231 230 230 230 228 227 231 236
201 201 202 204 205 205 206 206 207 209 211 211 212 213 214 216 217 218 219 220 221 223 224 224 224 225 225 226 227 229 231 231 232 232 233 233 233 231 231 231 233 235 237 237 238 239 239 239 240 241 242 242 241 241 241 242 243 244 244 244 245 245 245 244 244 244 244 243 243 246 249 247 247 249 249 244 240 239 237 237 237 235 234 237 240
205 203 202 203 205 205 205 205 206 208 210 210 210 211 213 215 216 216 218 220 222 224 226 226 226 226 226 226 227 230 232 233 233 233 234 234 233 232 231 231 233 235 237 238 239 240 241 241 241 242 243 244 244 243 244 243 242 242 243 244 246 246 247 246 246 246 246 246 246 248 250 251 250 251 250 247 245 244 241 240 240 236 235 238 239
208 206 203 203 204 204 205 205 206 207 208 208 209 211 212 214 215 215 216 219 221 224 226 227 228 229 228 228 228 230 232 234 234 234 235 234 232 231 230 230 232 235 238 239 240 241 242 242 242 243 244 245 245 245 245 243 242 241 242 244 246 247 248 248 247 248 249 249 249 250 252 253 251 251 251 249 248 245 238 234 233 229 229 233 236
211 209 206 204 204 204 205 205 206 207 207 208 210 211 212 214 215 214 215 217 220 223 225 227 229 231 231 230 230 231 232 234 234 235 235 235 233 231 230 230 232 235 238 240 241 242 243 243 244 244 245 246 247 247 246 243 242 242 242 244 246 248 249 248 247 249 251 251 252 251 252 253 252 251 251 250 249 245 236 233 232 228 227 231 235
212 212 210 207 206 205 205 205 206 207 208 210 210 211 212 214 215 214 215 216 219 222 223 226 229 231 232 233 233 234 234 234 234 234 234 234 233 232 230 230 232 235 237 240 242 243 244 245 245 245 247 248 248 248 247 245 243 243 243 243 246 249 251 249 248 250 250 250 251 250 251 252 251 250 250 249 247 243 239 238 236 229 227 231 233
216 215 214 211 208 207 205 205 205 207 209 211 211 211 213 213 213 214 215 217 219 221 222 224 227 229 231 233 234 234 234 234 234 234 233 232 232 231 229 228 230 233 236 239 241 243 244 245 246 247 248 249 250 250 249 247 245 245 243 242 244 251 255 254 252 251 249 249 250 250 251 252 250 248 248 246 245 242 240 239 237 231 230 231 230
225 221 217 213 210 208 207 206 206 207 209 211 212 212 212 212 212 213 214 215 217 220 222 224 227 229 231 231 232 234 234 234 234 234 233 232 231 230 228 228 230 232 235 238 240 241 243 245 246 248 249 250 251 251 251 250 248 247 245 244 248 254 257 257 256 255 251 250 250 251 252 252 250 247 246 244 243 241 239 238 237 234 232 231 228
239 229 222 216 211 209 208 208 208 208 209 209 210 211 211 211 211 212 212 214 216 218 221 223 226 229 231 232 233 234 234 234 235 235 234 234 233 231 230 231 232 232 234 237 239 241 243 245 247 248 250 251 253 253 253 253 251 249 249 250 253 255 256 257 258 258 255 252 251 251 252 252 250 247 245 243 242 241 239 238 237 235 234 233 231
258 237 227 219 214 211 208 207 207 207 207 208 208 209 209 209 209 210 210 211 214 217 220 222 224 228 230 232 234 235 235 235 235 235 235 235 234 234 234 236 237 235 235 237 240 242 245 247 249 250 251 253 255 256 257 257 255 254 255 257 257 257 257 257 257 258 258 257 254 252 253 253 251 248 246 244 244 242 241 240 239 237 236 235 233
287 247 230 221 217 214 210 207 205 205 205 205 206 206 207 206 207 208 209 209 211 214 217 218 221 225 228 230 232 233 233 234 235 237 237 236 235 236 237 238 240 240 240 241 243 244 246 248 250 251 253 255 257 258 260 260 259 260 261 262 262 260 258 256 256 257 257 257 255 254 255 255 253 251 250 249 248 247 245 243 242 240 238 236 234
301 261 237 224 219 215 210 206 204 204 203 202 202 202 202 203 205 206 207 208 209 212 214 216 218 221 225 228 230 231 232 234 235 236 236 235 235 236 238 240 241 241 242 243 243 244 246 248 250 252 254 256 258 259 260 260 261 263 265 266 266 263 259 257 257 258 258 256 256 256 257 258 256 253 252 254 254 253 249 247 246 244 240 237 233
305 266 242 228 219 212 207 203 201 202 201 200 200 200 200 201 203 204 204 206 208 210 211 212 215 220 223 225 227 230 231 232 232 232 231 232 233 235 236 239 240 239 240 243 244 244 244 246 249 252 256 259 262 263 264 266 267 267 268 269 269 267 264 261 259 259 259 258 258 258 259 261 260 254 250 253 254 252 250 248 247 246 240 231 225
318 266 234 221 212 207 202 198 195 195 194 195 197 199 200 201 201 200 201 202 204 206 208 210 213 216 220 223 225 226 225 222 221 223 226 228 231 234 236 239 241 242 245 248 250 252 252 253 255 258 262 265 267 268 271 274 275 276 277 277 277 276 275 272 267 264 264 264 265 266 266 268 268 256 243 246 250 250 249 247 245 243 234 220 215
326 276 226 210 203 200 197 190 183 178 176 181 186 192 197 199 200 201 201 201 202 204 207 210 214 216 219 220 217 212 209 210 209 210 213 216 219 223 228 233 238 241 245 250 254 257 259 260 261 263 265 267 270 273 277 281 283 286 288 290 291 290 288 286 280 274 273 272 273 274 274 275 274 263 244 242 245 248 248 246 242 238 225 212 210
325 286 217 202 195 190 184 177 169 161 156 157 160 166 182 194 198 202 204 206 209 212 213 216 218 220 219 215 208 200 193 191 190 189 186 185 186 187 188 193 199 208 219 231 242 251 259 267 274 281 286 290 293 296 299 300 299 299 300 300 301 299 296 292 286 282 281 280 278 278 278 278 277 270 252 242 244 248 248 245 240 235 223 212 212
313 290 202 190 184 174 164 159 157 155 153 150 143 133 137 170 191 199 206 210 213 216 220 221 220 216 211 204 203 203 193 175 165 166 167 165 167 168 169 176 188 202 219 232 245 262 278 292 309 319 325 330 330 327 326 324 320 317 315 314 311 307 303 297 293 290 289 287 283 282 281 278 276 271 259 247 246 249 248 243 238 231 221 215 217
291 264 182 176 172 162 154 151 151 152 152 150 142 128 112 107 123 155 184 202 207 210 214 215 210 207 204 192 178 174 171 161 155 158 157 152 151 149 145 150 155 157 181 197 175 104 48 36 28 17 7 360 353 344 337 332 328 323 321 319 316 313 308 303 299 297 294 291 287 284 282 278 275 272 264 255 250 249 247 242 236 229 222 219 219
275 208 182 173 167 160 155 154 152 149 146 143 141 134 120 104 94 95 109 132 151 160 164 163 159 160 170 169 153 143 141 142 144 145 140 135 135 132 126 122 114 109 115 119 103 84 69 58 47 31 15 3 354 345 336 330 326 321 317 314 312 311 308 305 303 300 296 292 289 286 283 280 275 272 268 262 255 250 246 242 235 228 225 223 222
142 175 178 173 164 159 157 155 152 149 146 142 140 137 131 122 110 101 100 105 111 114 116 120 125 124 124 132 137 134 131 132 134 135 136 136 135 131 125 117 108 102 101 96 86 78 67 55 45 29 12 0 350 341 334 327 322 316 312 308 306 307 308 308 307 303 298 295 292 288 285 282 278 275 272 267 261 254 249 245 239 232 227 224 223
97 136 161 168 162 156 154 153 150 147 145 143 141 138 135 133 128 121 113 107 104 104 106 109 115 118 118 121 125 127 129 132 132 133 134 132 129 125 120 111 101 92 85 80 77 73 65 54 43 27 12 2 352 342 334 328 325 323 321 318 316 315 315 315 313 309 305 302 297 292 288 285 280 277 273 270 266 260 253 247 242 237 232 227 223
90 93 114 143 151 150 150 149 146 144 142 140 137 133 130 128 126 123 120 115 108 104 104 105 109 113 116 117 117 118 121 122 122 122 122 119 117 116 111 103 94 86 80 76 73 68 61 51 40 27 15 6 359 354 347 343 342 339 334 330 326 325 324 323 321 318 314 309 302 296 292 287 281 276 272 269 267 265 261 255 246 241 238 233 227
93 88 92 113 132 140 143 144 144 142 139 135 131 127 123 121 119 117 116 115 113 111 108 108 109 112 112 111 110 110 110 110 110 111 110 108 109 110 106 99 93 88 82 78 73 69 62 52 40 29 20 13 10 6 1 357 352 346 340 336 333 331 330 329 326 324 321 316 310 304 299 292 284 277 273 268 264 263 265 263 256 249 246 241 232
96 92 92 103 118 127 130 132 134 134 132 130 127 124 121 119 119 116 113 113 114 115 114 114 115 115 115 116 114 110 106 103 101 100 101 103 102 101 99 97 95 92 88 82 77 74 66 54 43 35 27 23 20 15 9 3 357 351 348 346 343 340 337 334 331 329 326 322 319 316 310 301 292 283 275 270 267 266 268 269 267 264 256 246 234
94 90 91 99 108 114 116 118 121 124 124 124 125 125 123 122 120 117 115 116 118 119 120 121 121 119 120 124 123 118 112 107 101 97 99 100 98 95 93 94 95 94 93 90 83 74 66 55 46 39 35 32 29 22 13 8 3 358 355 352 350 349 347 343 341 340 337 332 329 328 324 316 307 296 283 274 270 267 267 268 271 275 272 255 238
87 85 88 94 98 103 108 113 117 120 122 123 126 127 127 125 124 122 120 120 121 120 121 124 125 124 125 129 131 130 124 113 100 95 97 98 95 91 90 92 94 94 97 98 87 73 66 57 49 45 45 42 37 27 16 10 5 1 356 352 350 349 349 347 346 347 348 347 344 344 345 344 339 328 312 295 283 275 272 270 268 269 279 273 249
86 85 86 88 88 90 93 97 101 104 107 111 116 121 123 125 127 127 126 124 123 122 121 121 120 120 124 129 132 132 123 109 98 95 99 98 93 86 82 84 89 92 95 95 86 74 67 61 55 52 49 41 31 22 11 3 0 357 354 352 351 349 348 347 346 345 348 352 355 359 7 16 18 17 13 6 349 326 310 292 269 244 197 125 107
88 84 83 82 82 81 81 80 81 83 85 88 91 95 100 107 113 115 114 112 110 107 102 96 91 91 98 108 114 116 113 106 99 92 90 90 90 88 79 69 67 77 93 103 100 82 72 69 62 53 42 32 24 16 6 2 2 360 356 356 356 355 354 355 354 352 352 355 0 7 20 35 43 42 41 44 47 46 44 42 50 92 105 104 104
89 85 82 80 79 78 77 74 75 77 78 78 79 80 83 86 88 88 89 89 87 83 78 74 73 75 76 77 81 88 97 108 113 110 106 102 91 74 59 44 40 55 107 146 161 142 74 76 69 49 33 26 19 14 10 11 15 13 8 4 5 5 5 5 4 3 3 4 7 11 19 36 50 55 56 59 62 64 64 64 66 71 77 84 89
93 89 85 82 79 79 78 77 77 76 75 75 76 77 78 80 80 80 82 82 78 75 71 68 68 72 72 73 77 79 77 76 77 86 113 126 88 58 47 40 33 4 256 221 198 317 346 8 41 17 17 20 18 16 15 17 20 21 17 12 11 13 14 13 13 13 13 13 16 18 21 28 41 51 57 63 68 72 74 75 77 78 80 82 84
98 94 91 87 83 81 79 79 79 78 77 77 77 76 76 77 77 77 78 77 74 71 68 64 64 66 65 65 70 71 67 63 60 58 59 62 59 44 29 22 20 5 337 308 281 305 319 310 284 266 262 313 7 12 11 11 14 18 17 16 17 20 23 24 23 23 23 22 25 31 33 32 34 40 48 55 63 69 74 78 82 86 90 93 95
100 97 95 92 88 85 82 81 80 80 79 78 76 73 73 74 74 73 73 72 70 68 65 62 62 61 57 57 60 59 57 55 55 54 53 53 52 45 23 335 301 326 348 345 326 319 317 306 290 278 273 286 317 335 339 346 355 3 9 13 16 20 26 31 33 35 38 41 44 47 48 47 47 49 54 59 62 65 67 71 75 79 85 91 97
96 95 94 92 89 86 84 83 82 81 79 78 76 73 71 70 71 71 70 69 69 67 64 63 62 58 53 53 55 54 53 53 52 50 50 49 47 44 38 25 338 291 305 314 317 324 323 313 304 304 309 315 320 323 323 325 334 347 358 8 16 19 21 24 28 36 47 54 57 58 58 59 61 63 65 69 72 73 73 75 79 83 87 91 98
90 89 90 90 89 86 84 83 82 80 79 78 77 76 74 73 73 73 71 71 71 70 68 67 65 60 55 53 53 51 52 52 51 49 47 44 42 39 37 37 38 26 317 264 256 277 302 308 304 307 315 322 323 324 325 325 328 334 342 353 4 12 12 9 9 16 26 36 48 60 64 64 67 69 70 72 77 80 83 84 86 90 95 97 100
84 84 84 86 86 86 85 84 83 82 81 80 79 79 78 77 76 74 73 71 71 71 70 69 67 63 60 58 56 55 54 53 52 50 46 40 37 36 35 35 38 41 45 74 215 243 266 282 287 289 295 301 304 306 310 317 326 330 328 327 331 339 345 345 341 337 343 355 10 35 51 57 65 73 76 78 80 85 90 93 95 99 104 105 105
82 82 82 82 83 85 85 85 85 84 84 84 83 81 80 78 76 75 75 73 72 70 69 69 68 66 63 61 59 59 58 55 52 50 47 42 37 34 33 33 34 35 39 46 51 39 327 304 298 292 287 283 281 283 286 290 301 312 313 312 315 319 323 327 327 325 323 320 317 321 335 357 33 56 68 81 90 95 100 103 106 115 123 125 127
80 81 81 82 83 85 86 87 87 87 87 86 85 83 82 80 79 77 75 73 71 69 67 66 66 65 63 61 59 58 57 56 55 53 52 50 46 43 40 37 36 34 34 35 35 35 31 18 2 345 323 300 284 276 277 280 284 288 292 296 302 304 305 309 315 320 320 314 310 312 320 328 352 26 42 57 78 94 106 109 112 125 142 152 159
81 81 81 81 82 84 84 85 86 86 86 86 85 84 82 80 79 76 73 71 69 67 65 63 62 61 60 59 58 56 55 55 55 55 56 55 54 53 52 50 48 46 43 40 39 38 36 30 23 16 6 352 328 299 286 283 284 286 284 283 285 287 287 289 295 301 304 302 301 305 317 332 347 10 35 59 70 70 83 165 195 207 210 213 213